Time,TemperatureF,DewpointF,PressureIn,WindDirection,WindDirectionDegrees,WindSpeedMPH,WindSpeedGustMPH,Humidity,HourlyPrecipIn,Conditions,Clouds,dailyrainin,SoftwareType,DateUTC
2013-03-04 00:06:00,45.6,43.0,30.04,North,5,1.0,-999.0,91,-99.99,,,0.00,weatherlink.com 1.10,2013-03-04 08:06:00,
2013-03-04 00:20:00,45.6,44.0,30.04,NE,44,4.0,-999.0,92,-99.99,,,0.00,weatherlink.com 1.10,2013-03-04 08:20:00,
2013-03-04 00:35:00,45.5,43.0,30.04,NE,39,3.0,-999.0,92,-99.99,,,0.00,weatherlink.com 1.10,2013-03-04 08:35:00,
2013-03-04 00:52:00,45.4,43.0,30.03,NE,47,5.0,-999.0,91,-99.99,,,0.00,weatherlink.com 1.10,2013-03-04 08:52:00,
2013-03-04 01:06:00,45.3,43.0,30.04,NNW,348,3.0,-999.0,91,-99.99,,,0.00,weatherlink.com 1.10,2013-03-04 09:06:00,
2013-03-04 01:21:00,45.0,43.0,30.04,NW,307,2.0,-999.0,91,-99.99,,,0.00,weatherlink.com 1.10,2013-03-04 09:21:00,
2013-03-04 01:36:00,44.8,42.0,30.04,WNW,292,0.0,-999.0,91,-99.99,,,0.00,weatherlink.com 1.10,2013-03-04 09:36:00,
2013-03-04 01:51:00,44.6,42.0,30.04,NNW,335,0.0,-999.0,91,-99.99,,,0.00,weatherlink.com 1.10,2013-03-04 09:51:00,
2013-03-04 02:06:00,44.5,42.0,30.05,NNE,18,2.0,-999.0,92,-99.99,,,0.00,weatherlink.com 1.10,2013-03-04 10:06:00,
2013-03-04 02:21:00,44.6,43.0,30.04,East,92,0.0,-999.0,92,-99.99,,,0.00,weatherlink.com 1.10,2013-03-04 10:21:00,
2013-03-04 02:35:00,44.7,43.0,30.04,East,86,1.0,-999.0,92,-99.99,,,0.00,weatherlink.com 1.10,2013-03-04 10:35:00,
2013-03-04 02:51:00,44.7,43.0,30.04,East,79,3.0,-999.0,92,-99.99,,,0.00,weatherlink.com 1.10,2013-03-04 10:51:00,
2013-03-04 03:06:00,44.7,43.0,30.04,East,98,2.0,-999.0,92,-99.99,,,0.00,weatherlink.com 1.10,2013-03-04 11:06:00,
2013-03-04 03:21:00,44.6,43.0,30.04,East,96,0.0,-999.0,92,-99.99,,,0.00,weatherlink.com 1.10,2013-03-04 11:21:00,
2013-03-04 03:36:00,44.6,43.0,30.04,East,96,1.0,-999.0,92,-99.99,,,0.00,weatherlink.com 1.10,2013-03-04 11:36:00,
2013-03-04 03:51:00,44.6,43.0,30.04,East,96,1.0,-999.0,92,-99.99,,,0.00,weatherlink.com 1.10,2013-03-04 11:51:00,
2013-03-04 04:06:00,44.6,43.0,30.04,East,87,0.0,-999.0,92,-99.99,,,0.00,weatherlink.com 1.10,2013-03-04 12:06:00,
2013-03-04 04:20:00,44.8,43.0,30.04,East,80,2.0,-999.0,93,-99.99,,,0.00,weatherlink.com 1.10,2013-03-04 12:20:00,
2013-03-04 04:36:00,44.8,43.0,30.04,NNE,23,0.0,-999.0,93,-99.99,,,0.00,weatherlink.com 1.10,2013-03-04 12:36:00,
2013-03-04 04:51:00,45.0,43.0,30.04,North,9,1.0,-999.0,93,-99.99,,,0.00,weatherlink.com 1.10,2013-03-04 12:51:00,
2013-03-04 05:06:00,45.1,43.0,30.05,WNW,299,2.0,-999.0,93,-99.99,,,0.00,weatherlink.com 1.10,2013-03-04 13:06:00,
2013-03-04 05:21:00,45.0,43.0,30.05,NNE,22,0.0,-999.0,93,-99.99,,,0.00,weatherlink.com 1.10,2013-03-04 13:21:00,
2013-03-04 05:35:00,45.0,43.0,30.05,WNW,301,3.0,-999.0,93,-99.99,,,0.00,weatherlink.com 1.10,2013-03-04 13:35:00,
2013-03-04 05:50:00,45.0,43.0,30.06,NNW,329,0.0,-999.0,94,-99.99,,,0.01,weatherlink.com 1.10,2013-03-04 13:50:00,
2013-03-04 06:21:00,45.1,44.0,30.07,NW,320,1.0,-999.0,94,-99.99,,,0.01,weatherlink.com 1.10,2013-03-04 14:21:00,
2013-03-04 06:36:00,45.1,44.0,30.06,NNW,347,0.0,-999.0,94,-99.99,,,0.01,weatherlink.com 1.10,2013-03-04 14:36:00,
2013-03-04 06:50:00,44.9,43.0,30.07,NW,322,1.0,-999.0,94,-99.99,,,0.02,weatherlink.com 1.10,2013-03-04 14:50:00,
2013-03-04 07:06:00,45.1,44.0,30.07,NNW,334,6.0,-999.0,94,-99.99,,,0.02,weatherlink.com 1.10,2013-03-04 15:06:00,
2013-03-04 07:20:00,45.0,43.0,30.07,NNE,21,2.0,-999.0,94,-99.99,,,0.02,weatherlink.com 1.10,2013-03-04 15:20:00,
2013-03-04 07:35:00,45.2,44.0,30.08,NNW,337,6.0,-999.0,95,-99.99,,,0.02,weatherlink.com 1.10,2013-03-04 15:35:00,
2013-03-04 07:51:00,45.2,44.0,30.08,North,355,4.0,-999.0,95,-99.99,,,0.02,weatherlink.com 1.10,2013-03-04 15:51:00,
2013-03-04 08:06:00,45.1,44.0,30.08,NW,320,3.0,-999.0,95,-99.99,,,0.02,weatherlink.com 1.10,2013-03-04 16:06:00,
2013-03-04 08:21:00,45.2,44.0,30.09,NW,325,4.0,-999.0,95,-99.99,,,0.02,weatherlink.com 1.10,2013-03-04 16:21:00,
2013-03-04 08:36:00,45.2,44.0,30.09,NW,314,3.0,-999.0,95,-99.99,,,0.02,weatherlink.com 1.10,2013-03-04 16:36:00,
2013-03-04 08:51:00,45.3,44.0,30.09,NW,318,3.0,-999.0,95,-99.99,,,0.02,weatherlink.com 1.10,2013-03-04 16:51:00,
2013-03-04 09:06:00,45.1,44.0,30.09,NW,305,3.0,-999.0,95,-99.99,,,0.02,weatherlink.com 1.10,2013-03-04 17:06:00,
2013-03-04 09:21:00,45.4,44.0,30.09,NNW,341,4.0,-999.0,95,-99.99,,,0.02,weatherlink.com 1.10,2013-03-04 17:21:00,
2013-03-04 09:36:00,45.5,44.0,30.10,WNW,285,3.0,-999.0,95,-99.99,,,0.02,weatherlink.com 1.10,2013-03-04 17:36:00,
2013-03-04 09:51:00,45.9,45.0,30.10,NW,321,1.0,-999.0,95,-99.99,,,0.02,weatherlink.com 1.10,2013-03-04 17:51:00,
2013-03-04 10:05:00,45.6,44.0,30.10,West,276,2.0,-999.0,95,-99.99,,,0.02,weatherlink.com 1.10,2013-03-04 18:05:00,
2013-03-04 10:21:00,45.9,44.0,30.09,North,351,4.0,-999.0,94,-99.99,,,0.02,weatherlink.com 1.10,2013-03-04 18:21:00,
2013-03-04 10:36:00,46.3,44.0,30.09,NW,325,6.0,-999.0,93,-99.99,,,0.02,weatherlink.com 1.10,2013-03-04 18:36:00,
2013-03-04 10:51:00,46.3,44.0,30.09,NW,319,7.0,-999.0,92,-99.99,,,0.02,weatherlink.com 1.10,2013-03-04 18:51:00,
2013-03-04 11:06:00,47.2,45.0,30.08,North,355,6.0,-999.0,92,-99.99,,,0.02,weatherlink.com 1.10,2013-03-04 19:06:00,
2013-03-04 11:22:00,47.6,45.0,30.08,West,273,3.0,-999.0,89,-99.99,,,0.02,weatherlink.com 1.10,2013-03-04 19:22:00,
2013-03-04 11:36:00,47.7,44.0,30.08,West,263,4.0,-999.0,88,-99.99,,,0.02,weatherlink.com 1.10,2013-03-04 19:36:00,
2013-03-04 11:51:00,47.7,44.0,30.07,WNW,301,6.0,-999.0,88,-99.99,,,0.02,weatherlink.com 1.10,2013-03-04 19:51:00,
2013-03-04 12:06:00,47.7,44.0,30.08,West,279,7.0,-999.0,87,-99.99,,,0.02,weatherlink.com 1.10,2013-03-04 20:06:00,
2013-03-04 12:20:00,47.2,43.0,30.08,West,280,4.0,-999.0,85,-99.99,,,0.02,weatherlink.com 1.10,2013-03-04 20:20:00,
2013-03-04 12:37:00,47.2,43.0,30.08,West,276,2.0,-999.0,86,-99.99,,,0.02,weatherlink.com 1.10,2013-03-04 20:37:00,
2013-03-04 12:50:00,47.7,43.0,30.07,NNW,331,3.0,-999.0,85,-99.99,,,0.02,weatherlink.com 1.10,2013-03-04 20:50:00,
2013-03-04 13:06:00,48.0,42.0,30.07,West,265,5.0,-999.0,81,-99.99,,,0.02,weatherlink.com 1.10,2013-03-04 21:06:00,
2013-03-04 13:21:00,48.7,43.0,30.06,West,279,6.0,-999.0,82,-99.99,,,0.02,weatherlink.com 1.10,2013-03-04 21:21:00,
2013-03-04 13:37:00,49.1,43.0,30.06,West,265,3.0,-999.0,79,-99.99,,,0.02,weatherlink.com 1.10,2013-03-04 21:37:00,
2013-03-04 13:51:00,49.1,43.0,30.05,WSW,244,5.0,-999.0,79,-99.99,,,0.02,weatherlink.com 1.10,2013-03-04 21:51:00,
2013-03-04 14:06:00,49.8,44.0,30.05,West,277,3.0,-999.0,79,-99.99,,,0.02,weatherlink.com 1.10,2013-03-04 22:06:00,
2013-03-04 14:21:00,49.9,44.0,30.05,West,277,5.0,-999.0,79,-99.99,,,0.02,weatherlink.com 1.10,2013-03-04 22:21:00,
2013-03-04 14:37:00,49.7,43.0,30.07,West,267,5.0,-999.0,79,-99.99,,,0.02,weatherlink.com 1.10,2013-03-04 22:37:00,
2013-03-04 14:50:00,50.1,43.0,30.07,WNW,294,2.0,-999.0,77,-99.99,,,0.02,weatherlink.com 1.10,2013-03-04 22:50:00,
2013-03-04 15:05:00,50.5,44.0,30.06,WSW,246,4.0,-999.0,77,-99.99,,,0.02,weatherlink.com 1.10,2013-03-04 23:05:00,
2013-03-04 15:22:00,50.4,43.0,30.05,West,271,5.0,-999.0,77,-99.99,,,0.02,weatherlink.com 1.10,2013-03-04 23:22:00,
2013-03-04 15:36:00,50.9,44.0,30.04,West,277,4.0,-999.0,76,-99.99,,,0.02,weatherlink.com 1.10,2013-03-04 23:36:00,
2013-03-04 15:52:00,50.5,43.0,30.04,West,277,5.0,-999.0,74,-99.99,,,0.02,weatherlink.com 1.10,2013-03-04 23:52:00,
2013-03-04 16:06:00,49.6,42.0,30.04,West,269,3.0,-999.0,76,-99.99,,,0.02,weatherlink.com 1.10,2013-03-05 00:06:00,
2013-03-04 16:20:00,50.0,43.0,30.04,West,270,4.0,-999.0,76,-99.99,,,0.02,weatherlink.com 1.10,2013-03-05 00:20:00,
2013-03-04 16:36:00,49.7,42.0,30.03,WSW,244,3.0,-999.0,76,-99.99,,,0.02,weatherlink.com 1.10,2013-03-05 00:36:00,
2013-03-04 16:51:00,49.7,42.0,30.03,West,281,3.0,-999.0,75,-99.99,,,0.02,weatherlink.com 1.10,2013-03-05 00:51:00,
2013-03-04 17:06:00,49.7,42.0,30.02,West,267,1.0,-999.0,74,-99.99,,,0.02,weatherlink.com 1.10,2013-03-05 01:06:00,
2013-03-04 17:21:00,48.2,41.0,30.02,SW,235,0.0,-999.0,77,-99.99,,,0.02,weatherlink.com 1.10,2013-03-05 01:21:00,
2013-03-04 17:36:00,47.0,40.0,30.02,West,273,3.0,-999.0,78,-99.99,,,0.02,weatherlink.com 1.10,2013-03-05 01:36:00,
2013-03-04 17:51:00,46.3,40.0,30.02,West,273,2.0,-999.0,79,-99.99,,,0.02,weatherlink.com 1.10,2013-03-05 01:51:00,
2013-03-04 18:05:00,45.7,40.0,30.02,West,273,2.0,-999.0,81,-99.99,,,0.02,weatherlink.com 1.10,2013-03-05 02:05:00,
2013-03-04 18:35:00,43.4,38.0,30.02,West,273,1.0,-999.0,81,-99.99,,,0.03,weatherlink.com 1.10,2013-03-05 02:35:00,
2013-03-04 18:50:00,42.2,37.0,30.02,NE,51,2.0,-999.0,83,-99.99,,,0.03,weatherlink.com 1.10,2013-03-05 02:50:00,
2013-03-04 19:05:00,41.1,37.0,30.02,ENE,77,2.0,-999.0,85,-99.99,,,0.03,weatherlink.com 1.10,2013-03-05 03:05:00,
2013-03-04 19:21:00,40.5,37.0,30.02,ENE,74,2.0,-999.0,87,-99.99,,,0.03,weatherlink.com 1.10,2013-03-05 03:21:00,
2013-03-04 19:35:00,40.0,37.0,30.03,ENE,74,2.0,-999.0,87,-99.99,,,0.03,weatherlink.com 1.10,2013-03-05 03:35:00,
2013-03-04 19:52:00,39.3,36.0,30.03,ENE,71,0.0,-999.0,88,-99.99,,,0.03,weatherlink.com 1.10,2013-03-05 03:52:00,
2013-03-04 20:06:00,39.2,36.0,30.03,ENE,71,2.0,-999.0,89,-99.99,,,0.03,weatherlink.com 1.10,2013-03-05 04:06:00,
2013-03-04 20:21:00,39.5,37.0,30.02,ENE,71,0.0,-999.0,90,-99.99,,,0.03,weatherlink.com 1.10,2013-03-05 04:21:00,
2013-03-04 20:36:00,39.9,38.0,30.02,ENE,74,4.0,-999.0,91,-99.99,,,0.03,weatherlink.com 1.10,2013-03-05 04:36:00,
2013-03-04 20:52:00,40.2,38.0,30.02,East,80,4.0,-999.0,91,-99.99,,,0.03,weatherlink.com 1.10,2013-03-05 04:52:00,
2013-03-04 21:06:00,39.8,37.0,30.02,ENE,78,5.0,-999.0,90,-99.99,,,0.03,weatherlink.com 1.10,2013-03-05 05:06:00,
2013-03-04 21:21:00,39.6,37.0,30.02,ENE,67,3.0,-999.0,91,-99.99,,,0.03,weatherlink.com 1.10,2013-03-05 05:21:00,
2013-03-04 21:36:00,39.6,37.0,30.02,East,101,5.0,-999.0,91,-99.99,,,0.03,weatherlink.com 1.10,2013-03-05 05:36:00,
2013-03-04 21:51:00,39.2,37.0,30.01,ENE,77,3.0,-999.0,91,-99.99,,,0.03,weatherlink.com 1.10,2013-03-05 05:51:00,
2013-03-04 22:06:00,38.9,37.0,30.01,ENE,73,2.0,-999.0,91,-99.99,,,0.03,weatherlink.com 1.10,2013-03-05 06:06:00,
2013-03-04 22:21:00,38.6,36.0,30.00,ENE,67,3.0,-999.0,91,-99.99,,,0.03,weatherlink.com 1.10,2013-03-05 06:21:00,
2013-03-04 22:35:00,38.1,36.0,30.00,ENE,67,3.0,-999.0,91,-99.99,,,0.03,weatherlink.com 1.10,2013-03-05 06:35:00,
2013-03-04 22:51:00,37.8,36.0,30.00,ENE,71,2.0,-999.0,91,-99.99,,,0.03,weatherlink.com 1.10,2013-03-05 06:51:00,
2013-03-04 23:05:00,37.7,35.0,30.00,ENE,74,2.0,-999.0,91,-99.99,,,0.03,weatherlink.com 1.10,2013-03-05 07:05:00,
2013-03-04 23:22:00,37.5,35.0,30.00,ENE,75,4.0,-999.0,92,-99.99,,,0.03,weatherlink.com 1.10,2013-03-05 07:22:00,
2013-03-04 23:35:00,37.6,36.0,29.99,ENE,71,4.0,-999.0,92,-99.99,,,0.03,weatherlink.com 1.10,2013-03-05 07:35:00,
2013-03-04 23:50:00,37.8,36.0,29.98,ENE,73,4.0,-999.0,92,-99.99,,,0.03,weatherlink.com 1.10,2013-03-05 07:50:00,